Home   Weather   Rottenburg am Neckar   Past weeks

Flag for Germany Past Weather in Rottenburg am Neckar, Baden-Württemberg, Germany — Yesterday and Last 2 Weeks

Now
61 °F

Light rain. Broken clouds.


Feels Like: 61 °F
Forecast: 55 / 60 °F
Wind: 12 mph from West

Location: Stuttgart-Echterdingen

Current Time: Jul 24, 2017 at 10:51:50 am

Latest Report: Jul 24, 2017 at 10:31 am


Visibility: N/A

Pressure: 29.80 "Hg

Humidity: 88%

Dew Point: 57 °F

Location of Rottenburg am NeckarLocation

Past Weather in Rottenburg am Neckar — Graph

°F

Rottenburg am Neckar Temperature Yesterday

Maximum temperature yesterday: 72 °F (at 3:20 pm)
Minimum temperature yesterday: 59 °F (at 11:20 pm)
Average temperature yesterday: 66 °F

High & Low Weather Summary for the Past Weeks

 TemperatureHumidityPressure
High91 °F (Jul 19, 3:20 pm)100% (Jul 11, 12:50 am)30.30 "Hg (Jul 11, 12:50 am)
Low50 °F (Jul 16, 3:50 am)29% (Jul 19, 4:20 pm)29.77 "Hg (Jul 24, 8:20 am)
Average68 °F70%30.02 "Hg
* Reported Jul 9 9:20 am — Jul 24 9:50 am, Rottenburg am Neckar. Weather by CustomWeather, © 2017

Note: Actual official high and low records may vary slightly from our data, if they occured in-between our weather recording intervals... More about our weather records

Advertising

Rottenburg am Neckar Weather History for the Previous 24 Hours

Scroll right to see more
 ConditionsComfort  
Time TempWeatherWind HumidityBarometerVisibility
9:50 am
Mon, Jul 24
63 °FLight rain. Partly sunny.8 mph77%29.77 "HgN/A
9:20 am64 °FLight rain. Partly sunny.9 mph73%29.77 "HgN/A
8:50 am63 °FLight rain. Partly sunny.7 mph73%29.77 "HgN/A
8:20 am61 °FLight rain. Partly sunny.7 mph83%29.77 "HgN/A
7:50 am59 °FPartly sunny.2 mph82%29.80 "HgN/A
7:20 am57 °FPartly sunny.1 mph94%29.80 "HgN/A
6:50 am55 °FSunny.1 mph100%29.83 "Hg10 mi
6:20 am55 °FSunny.1 mph94%29.83 "Hg10 mi
5:50 am55 °FSunny.1 mph94%29.83 "Hg10 mi
5:20 am55 °FClear.2 mph94%29.86 "Hg10 mi
4:20 am55 °FClear.3 mph94%29.89 "Hg10 mi
3:50 am55 °FClear.2 mph94%29.89 "Hg10 mi
2:50 am57 °FClear.1 mph88%29.95 "Hg10 mi
2:20 am57 °FClear.3 mph88%29.95 "Hg10 mi
1:50 am57 °FClear.1 mph88%29.95 "Hg10 mi
1:20 am59 °FClear.2 mph82%29.98 "Hg10 mi
12:50 am59 °FClear.1 mph82%29.98 "Hg10 mi
12:20 am59 °FClear.1 mph82%29.98 "Hg10 mi
11:50 pm
Sun, Jul 23
61 °FPassing clouds.3 mph72%30.01 "HgN/A
11:30 pm61 °FClear.2 mph72%30.01 "Hg10 mi
11:20 pm59 °FClear.2 mph82%30.01 "Hg10 mi
10:20 pm63 °FClear.1 mph68%30.01 "Hg10 mi
9:50 pm64 °FClear.2 mph60%30.01 "Hg10 mi
9:20 pm66 °FPassing clouds.5 mph56%30.01 "HgN/A
8:20 pm68 °FPassing clouds.5 mph53%30.01 "HgN/A
7:50 pm68 °FPassing clouds.5 mph53%30.01 "HgN/A
7:20 pm70 °FPassing clouds.10 mph50%30.01 "HgN/A
6:50 pm72 °FPassing clouds.9 mph47%30.01 "HgN/A
6:20 pm72 °FScattered clouds.5 mph47%30.01 "HgN/A
5:20 pm70 °FBroken clouds.8 mph50%30.04 "HgN/A
4:50 pm70 °FPartly sunny.7 mph53%30.04 "HgN/A
4:20 pm72 °FBroken clouds.8 mph53%30.04 "HgN/A
3:50 pm72 °FScattered clouds.10 mph53%30.04 "HgN/A
3:20 pm72 °FPartly sunny.9 mph53%30.07 "HgN/A
2:50 pm70 °FScattered clouds.9 mph57%30.07 "HgN/A
2:20 pm70 °FPartly sunny.8 mph57%30.07 "HgN/A
1:50 pm70 °FScattered clouds.10 mph60%30.07 "HgN/A
1:20 pm68 °FPartly sunny.10 mph64%30.07 "HgN/A
12:50 pm66 °FPartly sunny.8 mph64%30.07 "HgN/A
12:20 pm66 °FPartly sunny.8 mph64%30.07 "HgN/A
11:50 am66 °FPartly sunny.8 mph68%30.07 "HgN/A
11:20 am66 °FPartly sunny.12 mph60%30.07 "HgN/A
10:50 am66 °FBroken clouds.8 mph64%30.07 "HgN/A
10:20 am64 °FBroken clouds.10 mph73%30.07 "HgN/A
Weather by CustomWeather, © 2017

See weather overviewHow to use our weather pages